TimeCDT,TemperatureF,Dew PointF,Humidity,Sea Level PressureIn,VisibilityMPH,Wind Direction,Wind SpeedMPH,Gust SpeedMPH,PrecipitationIn,Events,Conditions,WindDirDegrees,DateUTC
12:15 AM,64.4,60.8,88,29.88,7.0,SSW,18.4,23.0,0.08,,Overcast,200,2013-10-31 05:15:00
12:35 AM,62.6,60.8,94,29.88,8.0,SSW,19.6,23.0,0.09,,Mostly Cloudy,200,2013-10-31 05:35:00
12:55 AM,62.6,60.8,94,29.88,9.0,SSW,18.4,23.0,0.09,,Partly Cloudy,210,2013-10-31 05:55:00
1:15 AM,62.6,60.8,94,29.87,9.0,SSW,17.3,23.0,0.01,,Scattered Clouds,210,2013-10-31 06:15:00
1:35 AM,62.6,60.8,94,29.87,9.0,SSW,13.8,-,0.01,,Scattered Clouds,210,2013-10-31 06:35:00
1:55 AM,62.6,60.8,94,29.86,7.0,SSW,13.8,18.4,0.01,,Scattered Clouds,200,2013-10-31 06:55:00
2:15 AM,62.6,60.8,94,29.86,8.0,SSW,13.8,-,0.01,,Scattered Clouds,200,2013-10-31 07:15:00
2:35 AM,62.6,60.8,94,29.85,5.0,SSW,12.7,-,0.02,,Mostly Cloudy,200,2013-10-31 07:35:00
2:55 AM,62.6,59.0,88,29.84,7.0,SSW,11.5,-,0.02,,Mostly Cloudy,200,2013-10-31 07:55:00
3:15 AM,62.6,59.0,88,29.82,7.0,SSW,11.5,-,0.01,,Scattered Clouds,200,2013-10-31 08:15:00
3:35 AM,62.6,59.0,88,29.82,5.0,South,11.5,-,0.01,,Scattered Clouds,190,2013-10-31 08:35:00
3:55 AM,62.6,59.0,88,29.80,5.0,South,9.2,-,0.02,,Mostly Cloudy,190,2013-10-31 08:55:00
4:15 AM,62.6,59.0,88,29.79,4.0,South,11.5,-,N/A,,Scattered Clouds,180,2013-10-31 09:15:00
4:35 AM,62.6,57.2,82,29.79,5.0,South,13.8,-,0.02,,Mostly Cloudy,180,2013-10-31 09:35:00
4:55 AM,62.6,57.2,82,29.78,5.0,South,13.8,-,0.04,,Mostly Cloudy,190,2013-10-31 09:55:00
5:15 AM,62.6,57.2,82,29.78,5.0,SSW,13.8,21.9,0.02,,Overcast,200,2013-10-31 10:15:00
5:35 AM,60.8,57.2,88,29.77,7.0,SSW,13.8,23.0,0.03,,Overcast,200,2013-10-31 10:35:00
5:55 AM,60.8,57.2,88,29.76,6.0,SSW,15.0,19.6,0.04,,Overcast,200,2013-10-31 10:55:00
6:15 AM,60.8,57.2,88,29.75,5.0,SSW,18.4,24.2,0.01,,Overcast,210,2013-10-31 11:15:00
6:35 AM,60.8,57.2,88,29.74,5.0,SSW,21.9,28.8,0.02,,Overcast,200,2013-10-31 11:35:00
6:55 AM,60.8,55.4,82,29.74,10.0,SSW,21.9,27.6,0.02,,Overcast,210,2013-10-31 11:55:00
7:15 AM,60.8,55.4,82,29.73,5.0,SSW,17.3,21.9,0.03,,Overcast,200,2013-10-31 12:15:00
7:35 AM,59.0,55.4,88,29.72,8.0,SSW,15.0,-,0.06,,Overcast,200,2013-10-31 12:35:00
7:55 AM,59.0,55.4,88,29.71,7.0,South,16.1,23.0,0.08,,Overcast,190,2013-10-31 12:55:00
8:15 AM,60.8,55.4,82,29.71,6.0,South,19.6,26.5,0.03,,Overcast,190,2013-10-31 13:15:00
8:35 AM,60.8,55.4,82,29.70,5.0,South,20.7,27.6,0.10,,Overcast,190,2013-10-31 13:35:00
8:55 AM,60.8,55.4,82,29.70,8.0,SSW,21.9,28.8,0.11,,Overcast,200,2013-10-31 13:55:00
9:15 AM,60.8,55.4,82,29.69,7.0,SSW,21.9,28.8,0.01,,Overcast,200,2013-10-31 14:15:00
9:35 AM,60.8,55.4,82,29.68,5.0,SSW,20.7,28.8,0.02,,Overcast,210,2013-10-31 14:35:00
9:55 AM,60.8,55.4,82,29.68,10.0,SSW,20.7,32.2,0.03,,Overcast,210,2013-10-31 14:55:00
10:15 AM,60.8,55.4,82,29.67,7.0,SSW,19.6,31.1,0.03,,Overcast,210,2013-10-31 15:15:00
10:35 AM,60.8,55.4,82,29.67,7.0,SSW,20.7,28.8,0.06,,Overcast,210,2013-10-31 15:35:00
10:55 AM,60.8,55.4,82,29.66,7.0,SSW,20.7,27.6,0.09,,Overcast,200,2013-10-31 15:55:00
11:15 AM,60.8,55.4,82,29.65,7.0,SSW,19.6,28.8,0.03,,Overcast,200,2013-10-31 16:15:00
11:35 AM,60.8,55.4,82,29.63,6.0,South,20.7,31.1,0.05,,Overcast,190,2013-10-31 16:35:00
11:55 AM,60.8,55.4,82,29.61,8.0,South,18.4,26.5,0.07,,Overcast,190,2013-10-31 16:55:00
12:15 PM,60.8,55.4,82,29.60,7.0,South,17.3,26.5,0.03,,Overcast,190,2013-10-31 17:15:00
12:35 PM,60.8,55.4,82,29.57,7.0,South,16.1,20.7,0.09,,Overcast,180,2013-10-31 17:35:00
12:55 PM,60.8,55.4,82,29.53,9.0,South,17.3,24.2,0.11,,Overcast,180,2013-10-31 17:55:00
1:15 PM,60.8,55.4,82,29.51,10.0,South,15.0,24.2,0.01,,Overcast,180,2013-10-31 18:15:00
1:35 PM,60.8,55.4,82,29.50,6.0,South,16.1,25.3,0.02,,Overcast,190,2013-10-31 18:35:00
1:55 PM,60.8,55.4,82,29.47,3.0,South,17.3,23.0,0.05,,Overcast,190,2013-10-31 18:55:00
2:15 PM,59.0,55.4,88,29.45,3.0,South,16.1,24.2,0.03,,Overcast,180,2013-10-31 19:15:00
2:35 PM,59.0,55.4,88,29.43,5.0,South,18.4,23.0,0.04,,Overcast,170,2013-10-31 19:35:00
2:55 PM,60.8,55.4,82,29.42,10.0,South,17.3,23.0,0.04,,Overcast,180,2013-10-31 19:55:00
3:15 PM,60.8,57.2,88,29.41,10.0,South,18.4,25.3,N/A,,Overcast,190,2013-10-31 20:15:00
3:35 PM,60.8,57.2,88,29.40,10.0,South,19.6,25.3,N/A,,Overcast,190,2013-10-31 20:35:00
3:55 PM,60.8,57.2,88,29.39,10.0,South,17.3,24.2,N/A,,Overcast,190,2013-10-31 20:55:00
4:15 PM,62.6,59.0,88,29.38,10.0,South,18.4,24.2,N/A,,Overcast,190,2013-10-31 21:15:00
4:35 PM,62.6,59.0,88,29.37,4.0,SSW,16.1,20.7,0.01,,Overcast,200,2013-10-31 21:35:00
4:55 PM,62.6,59.0,88,29.36,3.0,SSW,18.4,25.3,0.03,,Overcast,200,2013-10-31 21:55:00
5:15 PM,62.6,59.0,88,29.34,4.0,SSW,11.5,20.7,0.03,,Overcast,200,2013-10-31 22:15:00
5:35 PM,62.6,59.0,88,29.33,5.0,South,13.8,-,0.05,,Mostly Cloudy,190,2013-10-31 22:35:00
5:55 PM,62.6,59.0,88,29.32,7.0,South,16.1,21.9,0.10,,Overcast,190,2013-10-31 22:55:00
6:15 PM,62.6,59.0,88,29.32,10.0,SSW,16.1,27.6,0.05,,Overcast,210,2013-10-31 23:15:00
6:35 PM,62.6,57.2,82,29.33,10.0,SW,15.0,24.2,0.07,,Mostly Cloudy,220,2013-10-31 23:35:00
6:55 PM,62.6,57.2,82,29.32,10.0,SW,16.1,-,0.09,,Mostly Cloudy,220,2013-10-31 23:55:00
7:15 PM,60.8,57.2,88,29.31,10.0,SW,13.8,21.9,0.01,,Mostly Cloudy,220,2013-11-01 00:15:00
7:35 PM,62.6,57.2,82,29.31,10.0,SW,17.3,23.0,0.02,,Mostly Cloudy,220,2013-11-01 00:35:00
7:55 PM,60.8,57.2,88,29.28,10.0,SW,16.1,24.2,0.11,,Overcast,220,2013-11-01 00:55:00
8:15 PM,60.8,57.2,88,29.27,9.0,SW,16.1,23.0,0.08,,Mostly Cloudy,230,2013-11-01 01:15:00
8:35 PM,60.8,57.2,88,29.29,9.0,WSW,20.7,27.6,0.15,,Overcast,240,2013-11-01 01:35:00
8:55 PM,59.0,55.4,88,29.32,10.0,WNW,25.3,31.1,0.26,,Overcast,290,2013-11-01 01:55:00
9:15 PM,55.4,51.8,88,29.30,10.0,WNW,24.2,29.9,0.04,,Overcast,300,2013-11-01 02:15:00
9:35 PM,55.4,51.8,88,29.31,10.0,WNW,24.2,31.1,0.05,,Overcast,300,2013-11-01 02:35:00
9:55 PM,55.4,51.8,88,29.31,10.0,WNW,21.9,-,0.05,,Overcast,290,2013-11-01 02:55:00
10:15 PM,55.4,50.0,82,29.35,10.0,WNW,19.6,26.5,N/A,,Overcast,290,2013-11-01 03:15:00
10:35 PM,53.6,50.0,88,29.39,10.0,West,18.4,25.3,N/A,,Overcast,270,2013-11-01 03:35:00
10:55 PM,53.6,48.2,82,29.38,10.0,West,16.1,21.9,0.01,,Overcast,270,2013-11-01 03:55:00
11:15 PM,53.6,46.4,77,29.39,10.0,West,16.1,21.9,N/A,,Mostly Cloudy,270,2013-11-01 04:15:00
11:35 PM,51.8,48.2,88,29.39,10.0,West,15.0,-,N/A,,Scattered Clouds,270,2013-11-01 04:35:00
11:55 PM,51.8,46.4,82,29.41,10.0,West,18.4,25.3,N/A,,Mostly Cloudy,280,2013-11-01 04:55:00